Date String (YYYY-MM-DD hh:mm:ss) UTC,Instrument flags,Ambient pressure (hPa),Sample flow (lpm),Bypass flow (lpm),Sample temperature (°C),Ambient temperature (°C),ASC tube jacket temperature (°C),LED temperature (°C),Box temperature (°C),Sample RH (%),Span deviation,Mass concentration (μg/m³),Mass concentration (μg/m³),Mass concentration (μg/m³)
DateTimeUTC,F1_M11,P_M11,Q1_M11,Q2_M11,T1_M11,T2_M11,T3_M11,T4_M11,T5_M11,U1_M11,ZSPAN_M11,X0_M11,X2_M11,X1_M11
2022-03-12 10:00:00,,0826.1,5.00,0.00,22.4,22.6,00.0,31.5,24.3,07.5,0000.0,0008.82,0004.69,0004.18
2022-03-12 10:01:00,,0826.1,4.99,0.00,22.6,23.0,00.0,31.5,24.5,07.8,-000.2,0009.08,0004.87,0004.34
2022-03-12 10:02:00,,0826.2,5.00,0.00,22.6,22.9,00.0,31.5,24.5,08.0,-000.4,0008.96,0005.07,0004.52
2022-03-12 10:03:00,,0826.0,4.98,0.00,22.6,22.6,00.0,31.5,24.4,07.9,0000.0,0009.18,0005.25,0004.69
2022-03-12 10:04:00,,0826.0,5.00,0.00,22.6,22.4,00.0,31.5,24.3,08.0,0000.0,0009.85,0005.40,0004.83
2022-03-12 10:05:00,,0826.1,5.01,0.00,22.6,22.2,00.0,31.5,24.2,07.9,0000.0,0009.87,0005.47,0004.90
2022-03-12 10:06:00,,0826.0,5.00,0.00,22.5,22.0,00.0,31.5,24.1,08.0,0000.0,0009.84,0005.62,0005.07
2022-03-12 10:07:00,,0826.0,4.99,0.00,22.4,21.7,00.0,31.5,24.0,08.1,0000.0,0010.51,0005.85,0005.30
2022-03-12 10:08:00,,0826.1,5.02,0.00,22.3,21.6,00.0,31.5,23.8,08.2,0000.0,0010.88,0006.09,0005.53
2022-03-12 10:09:00,,0826.1,5.00,0.00,22.2,21.4,00.0,31.4,23.7,08.4,-000.9,0011.95,0006.34,0005.75
2022-03-12 10:10:00,,0826.1,4.99,0.00,22.2,21.2,00.0,31.4,23.6,08.5,-000.7,0012.33,0006.54,0005.93
2022-03-12 10:11:00,,0826.0,5.01,0.00,22.1,21.3,00.0,31.4,23.6,08.5,-000.1,0012.52,0006.70,0006.08
2022-03-12 10:12:00,,0826.1,5.01,0.00,22.2,21.9,00.0,31.4,23.9,08.5,0000.4,0012.51,0006.77,0006.15
2022-03-12 10:13:00,,0826.0,4.99,0.00,22.3,22.7,00.0,31.4,24.2,08.4,-000.5,0012.39,0006.75,0006.17
2022-03-12 10:14:00,,0826.0,4.99,0.00,22.5,23.0,00.0,31.4,24.3,08.4,-000.9,0012.22,0006.78,0006.22
2022-03-12 10:15:00,,0826.1,5.01,0.00,22.5,22.7,00.0,31.4,24.2,08.4,-000.9,0011.79,0006.84,0006.28
2022-03-12 10:16:00,,0826.1,5.00,0.00,22.4,22.4,00.0,31.4,24.2,08.4,-000.2,0011.89,0006.95,0006.41
2022-03-12 10:17:00,,0826.0,5.00,0.00,22.4,22.1,00.0,31.4,24.1,08.4,0000.7,0012.01,0007.05,0006.50
2022-03-12 10:18:00,,0826.1,4.99,0.00,22.3,21.8,00.0,31.4,23.9,08.4,0001.8,0011.65,0007.15,0006.55
2022-03-12 10:19:00,,0826.0,4.99,0.00,22.2,21.6,00.0,31.4,23.7,08.5,0002.4,0011.74,0007.20,0006.58
2022-03-12 10:20:00,,0825.9,5.01,0.00,22.2,21.4,00.0,31.4,23.6,08.5,0002.2,0011.25,0007.22,0006.61
2022-03-12 10:21:00,,0826.0,4.99,0.00,22.1,21.3,00.0,31.3,23.6,08.6,0002.0,0011.34,0007.25,0006.66
2022-03-12 10:22:00,,0825.9,5.00,0.00,22.1,21.3,00.0,31.3,23.6,08.6,0002.3,0011.95,0007.30,0006.68
2022-03-12 10:23:00,,0825.9,5.01,0.00,22.1,21.9,00.0,31.3,23.8,08.5,0002.7,0012.09,0007.32,0006.69
2022-03-12 10:24:00,,0825.9,4.99,0.00,22.3,22.7,00.0,31.3,24.1,08.5,0002.8,0012.50,0007.42,0006.73
2022-03-12 10:25:00,,0825.9,5.00,0.00,22.4,23.1,00.0,31.4,24.4,08.4,0002.9,0012.63,0007.49,0006.76
2022-03-12 10:26:00,,0825.9,5.00,0.00,22.5,22.8,00.0,31.4,24.4,08.3,0002.7,0012.64,0007.52,0006.78
2022-03-12 10:27:00,,0825.9,5.01,0.00,22.5,22.4,00.0,31.4,24.2,08.3,0002.1,0012.61,0007.54,0006.79
2022-03-12 10:28:00,,0825.9,5.00,0.00,22.4,22.1,00.0,31.4,24.1,08.3,0001.9,0013.31,0007.59,0006.81
2022-03-12 10:29:00,,0825.9,5.00,0.00,22.4,21.8,00.0,31.4,24.1,08.0,0001.6,0013.30,0007.47,0006.69
2022-03-12 10:30:00,,0825.9,4.99,0.00,22.3,21.6,00.0,31.3,24.0,07.8,0000.9,0013.01,0007.25,0006.47
2022-03-12 10:31:00,,0826.0,5.02,0.00,22.3,21.5,00.0,31.3,23.9,07.6,0000.8,0012.52,0007.05,0006.26
2022-03-12 10:32:00,,0825.9,4.99,0.00,22.3,21.4,00.0,31.3,23.9,07.9,0000.8,0012.26,0006.96,0006.15
2022-03-12 10:33:00,,0825.9,5.01,0.00,22.2,21.3,00.0,31.3,23.8,07.8,0000.6,0011.57,0006.80,0006.01
2022-03-12 10:34:00,,0825.9,4.99,0.00,22.2,21.3,00.0,31.3,23.8,07.7,0000.2,0011.35,0006.61,0005.84
2022-03-12 10:35:00,,0825.9,5.00,0.00,22.1,21.1,00.0,31.3,23.7,07.8,0000.1,0010.87,0006.40,0005.69
2022-03-12 10:36:00,,0825.8,5.00,0.00,22.1,21.0,00.0,31.2,23.6,07.8,-000.3,0010.70,0006.26,0005.58
2022-03-12 10:37:00,,0825.8,5.00,0.00,22.1,21.4,00.0,31.2,23.7,07.9,-000.5,0010.59,0006.18,0005.51
2022-03-12 10:38:00,,0825.7,5.00,0.00,22.2,22.3,00.0,31.3,24.0,08.0,-000.2,0010.51,0006.12,0005.45
2022-03-12 10:39:00,,0825.7,5.00,0.00,22.4,23.0,00.0,31.3,24.3,07.7,-000.1,0009.89,0005.91,0005.28
2022-03-12 10:40:00,,0825.8,5.01,0.00,22.5,22.9,00.0,31.3,24.3,07.6,-000.4,0010.00,0005.82,0005.20
2022-03-12 10:41:00,,0825.9,5.00,0.00,22.4,22.5,00.0,31.3,24.3,07.5,0000.0,0010.06,0005.85,0005.23
2022-03-12 10:42:00,,0825.9,5.00,0.00,22.4,22.1,00.0,31.3,24.1,07.5,0000.4,0010.16,0005.86,0005.25
2022-03-12 10:43:00,,0825.9,4.99,0.00,22.3,21.9,00.0,31.3,24.0,07.8,0001.0,0010.77,0005.94,0005.32
2022-03-12 10:44:00,,0825.9,5.00,0.00,22.2,21.7,00.0,31.3,23.8,08.1,0000.0,0011.05,0006.12,0005.51
2022-03-12 10:45:00,,0825.9,5.02,0.00,22.2,21.5,00.0,31.3,23.7,08.2,0000.0,0011.48,0006.31,0005.71
2022-03-12 10:46:00,,0825.9,4.99,0.00,22.1,21.3,00.0,31.3,23.7,08.3,0000.0,0011.74,0006.48,0005.85
2022-03-12 10:47:00,,0825.9,5.00,0.00,22.1,21.3,00.0,31.2,23.7,08.3,0000.0,0011.96,0006.63,0005.97
2022-03-12 10:48:00,,0825.8,5.01,0.00,22.1,21.2,00.0,31.2,23.7,08.3,0000.0,0012.14,0006.72,0006.06
2022-03-12 10:49:00,,0825.8,4.99,0.00,22.0,21.2,00.0,31.2,23.6,08.4,0000.0,0012.47,0006.79,0006.13
2022-03-12 10:50:00,,0825.8,5.00,0.00,22.1,21.7,00.0,31.2,23.8,08.2,0000.0,0012.30,0006.88,0006.23
2022-03-12 10:51:00,,0825.8,5.01,0.00,22.2,22.5,00.0,31.2,24.1,08.2,0000.0,0012.18,0007.01,0006.36
2022-03-12 10:52:00,,0826.0,5.00,0.00,22.4,23.2,00.0,31.3,24.3,08.0,0000.0,0012.24,0007.09,0006.46
2022-03-12 10:53:00,,0825.8,5.00,0.00,22.5,23.0,00.0,31.3,24.4,08.1,0000.0,0012.41,0007.27,0006.63
2022-03-12 10:54:00,,0825.7,5.01,0.00,22.5,22.7,00.0,31.3,24.3,08.1,0000.0,0012.14,0007.26,0006.64
2022-03-12 10:55:00,,0825.7,4.99,0.00,22.5,22.4,00.0,31.3,24.2,08.0,0000.0,0012.18,0007.06,0006.48
2022-03-12 10:56:00,,0825.8,4.99,0.00,22.4,22.2,00.0,31.3,24.1,07.9,0000.0,0012.35,0006.83,0006.27
2022-03-12 10:57:00,,0825.8,5.00,0.00,22.4,21.9,00.0,31.3,24.1,07.9,0000.0,0012.01,0006.59,0006.04
2022-03-12 10:58:00,,0825.9,4.99,0.00,22.3,21.7,00.0,31.3,24.0,07.8,0000.0,0011.57,0006.30,0005.79
2022-03-12 10:59:00,,0825.9,4.99,0.00,22.3,21.6,00.0,31.3,24.0,07.8,0000.0,0011.24,0006.02,0005.52
